When you browse on this site, cookies collect data to enhance your experience and personalize the content and advertising you see.
Visit our Privacy Policy to learn more. By continuing to use the site, you agree to this use of cookies and data.
  • In United Kingdom
  • List of Countries
  • For 7 days
  • Water Temperature
  • Weather Map
  • Weather Widgets
  • user-avatar
    Login

    Hourly Weather London

    Today, 14 October, Monday

    Time Temperature Precipitation Wind Pressure Humidity
    00:00 +13°C° 0 mm 2 mps 757 mmHg 84%
    01:00 +13°C° 0 mm 2 mps 756 mmHg 84%
    02:00 +13°C° 0 mm 2 mps 756 mmHg 84%
    03:00 +13°C° 0 mm 2 mps 756 mmHg 85%
    04:00 +13°C° 0.1 mm 2 mps 756 mmHg 86%
    05:00 +12°C° 0.1 mm 2 mps 756 mmHg 88%
    06:00 +12°C° 0.1 mm 2 mps 755 mmHg 89%
    07:00 +11°C° 0.9 mm 3 mps 755 mmHg 89%
    08:00 +11°C° 0.9 mm 4 mps 754 mmHg 89%
    09:00 +11°C° 0.9 mm 4 mps 754 mmHg 89%
    10:00 +10°C° 0.7 mm 5 mps 753 mmHg 89%
    11:00 +12°C° 0.7 mm 5 mps 753 mmHg 90%
    12:00 +12°C° 0.7 mm 5 mps 752 mmHg 90%
    13:00 +13°C° 0.2 mm 5 mps 751 mmHg 90%
    14:00 +15°C° 0.2 mm 4 mps 751 mmHg 90%
    15:00 +17°C° 0.2 mm 4 mps 750 mmHg 90%
    16:00 +17°C° 3.5 mm 4 mps 749 mmHg 92%
    17:00 +17°C° 3.5 mm 4 mps 749 mmHg 93%
    18:00 +16°C° 3.5 mm 5 mps 748 mmHg 95%
    19:00 +16°C° 1.2 mm 5 mps 748 mmHg 94%
    20:00 +15°C° 1.2 mm 5 mps 748 mmHg 93%
    21:00 +15°C° 1.2 mm 5 mps 748 mmHg 92%
    22:00 +15°C° 0 mm 6 mps 748 mmHg 90%
    23:00 +14°C° 0 mm 6 mps 748 mmHg 89%

    Tomorrow, 15 October, Tuesday

    Time Temperature Precipitation Wind Pressure Humidity
    00:00 +14°C° 0 mm 6 mps 749 mmHg 87%
    01:00 +13°C° 0 mm 5 mps 749 mmHg 87%
    02:00 +13°C° 0 mm 5 mps 749 mmHg 88%
    03:00 +12°C° 0 mm 5 mps 749 mmHg 89%
    04:00 +12°C° 0 mm 4 mps 749 mmHg 89%
    05:00 +11°C° 0 mm 3 mps 749 mmHg 89%
    06:00 +12°C° 0 mm 2 mps 750 mmHg 89%
    07:00 +13°C° 0 mm 2 mps 750 mmHg 87%
    08:00 +13°C° 0 mm 2 mps 750 mmHg 85%
    09:00 +14°C° 0 mm 2 mps 750 mmHg 82%
    10:00 +14°C° 0 mm 3 mps 751 mmHg 80%
    11:00 +14°C° 0 mm 3 mps 751 mmHg 78%
    12:00 +16°C° 0 mm 3 mps 751 mmHg 77%
    13:00 +16°C° 0.3 mm 3 mps 751 mmHg 76%
    14:00 +16°C° 0.3 mm 3 mps 751 mmHg 75%
    15:00 +15°C° 0.3 mm 4 mps 751 mmHg 74%
    16:00 +14°C° 0 mm 3 mps 751 mmHg 77%
    17:00 +13°C° 0 mm 3 mps 751 mmHg 81%
    18:00 +13°C° 0 mm 3 mps 751 mmHg 84%
    19:00 +12°C° 0 mm 3 mps 751 mmHg 85%
    20:00 +12°C° 0 mm 3 mps 752 mmHg 86%
    21:00 +13°C° 0 mm 2 mps 752 mmHg 87%
    22:00 +12°C° 0 mm 2 mps 752 mmHg 88%
    23:00 +11°C° 0 mm 3 mps 752 mmHg 89%

    Day after tomorrow, 16 October, Wednesday

    Time Temperature Precipitation Wind Pressure Humidity
    00:00 +11°C° 0 mm 3 mps 752 mmHg 89%
    01:00 +11°C° 0 mm 3 mps 752 mmHg 89%
    02:00 +11°C° 0 mm 3 mps 752 mmHg 89%
    03:00 +12°C° 0 mm 2 mps 751 mmHg 88%
    04:00 +11°C° 0 mm 3 mps 751 mmHg 88%
    05:00 +12°C° 0 mm 4 mps 750 mmHg 89%
    06:00 +13°C° 0 mm 5 mps 749 mmHg 89%
    07:00 +13°C° 0.7 mm 5 mps 749 mmHg 90%
    08:00 +14°C° 0.7 mm 5 mps 749 mmHg 91%
    09:00 +14°C° 0.7 mm 6 mps 748 mmHg 92%
    10:00 +15°C° 0.2 mm 6 mps 748 mmHg 87%
    11:00 +15°C° 0.2 mm 7 mps 748 mmHg 81%
    12:00 +16°C° 0.2 mm 7 mps 748 mmHg 76%
    13:00 +15°C° 0 mm 7 mps 749 mmHg 74%
    14:00 +14°C° 0 mm 6 mps 749 mmHg 72%
    15:00 +13°C° 0 mm 6 mps 750 mmHg 71%
    16:00 +13°C° 0 mm 5 mps 750 mmHg 70%
    17:00 +12°C° 0 mm 5 mps 751 mmHg 69%
    18:00 +11°C° 0 mm 4 mps 752 mmHg 69%
    19:00 +11°C° 0 mm 3 mps 752 mmHg 71%
    20:00 +10°C° 0 mm 3 mps 753 mmHg 73%
    21:00 +10°C° 0 mm 2 mps 753 mmHg 75%
    22:00 +9°C° 0 mm 2 mps 753 mmHg 76%
    23:00 +9°C° 0 mm 2 mps 754 mmHg 76%

    17 October, Thursday

    Time Temperature Precipitation Wind Pressure Humidity
    00:00 +10°C° 0 mm 1 mps 754 mmHg 77%
    01:00 +9°C° 0 mm 2 mps 754 mmHg 76%
    02:00 +9°C° 0 mm 2 mps 754 mmHg 76%
    03:00 +9°C° 0 mm 2 mps 754 mmHg 75%
    04:00 +10°C° 0.1 mm 2 mps 754 mmHg 77%
    05:00 +10°C° 0.1 mm 2 mps 754 mmHg 78%
    06:00 +10°C° 0.1 mm 2 mps 754 mmHg 79%
    07:00 +10°C° 0.2 mm 2 mps 754 mmHg 79%
    08:00 +11°C° 0.2 mm 3 mps 754 mmHg 78%
    09:00 +11°C° 0.2 mm 3 mps 754 mmHg 77%
    10:00 +12°C° 0.1 mm 4 mps 755 mmHg 72%
    11:00 +14°C° 0.1 mm 5 mps 755 mmHg 67%
    12:00 +15°C° 0.1 mm 6 mps 755 mmHg 62%
    13:00 +15°C° 0.1 mm 6 mps 755 mmHg 63%
    14:00 +14°C° 0.1 mm 6 mps 755 mmHg 64%
    15:00 +14°C° 0.1 mm 6 mps 755 mmHg 65%
    16:00 +14°C° 0 mm 5 mps 755 mmHg 69%
    17:00 +13°C° 0 mm 5 mps 755 mmHg 73%
    18:00 +12°C° 0 mm 4 mps 755 mmHg 77%
    19:00 +12°C° 0 mm 4 mps 755 mmHg 78%
    20:00 +11°C° 0 mm 4 mps 755 mmHg 79%
    21:00 +11°C° 0 mm 4 mps 755 mmHg 80%
    22:00 +11°C° 0 mm 4 mps 755 mmHg 80%
    23:00 +11°C° 0 mm 4 mps 755 mmHg 81%

    18 October, Friday

    Time Temperature Precipitation Wind Pressure Humidity
    00:00 +11°C° 0 mm 4 mps 755 mmHg 81%
    01:00 +11°C° 0.1 mm 4 mps 755 mmHg 81%
    02:00 +11°C° 0.1 mm 4 mps 754 mmHg 81%
    03:00 +11°C° 0.1 mm 4 mps 754 mmHg 81%
    04:00 +10°C° 0.3 mm 5 mps 754 mmHg 80%
    05:00 +10°C° 0.3 mm 5 mps 754 mmHg 80%
    06:00 +10°C° 0.3 mm 5 mps 754 mmHg 80%
    07:00 +12°C° 0.1 mm 5 mps 754 mmHg 78%
    08:00 +13°C° 0.1 mm 5 mps 754 mmHg 75%
    09:00 +13°C° 0.1 mm 6 mps 754 mmHg 73%
    10:00 +14°C° 0.2 mm 6 mps 754 mmHg 70%
    11:00 +14°C° 0.2 mm 6 mps 754 mmHg 68%
    12:00 +15°C° 0.2 mm 6 mps 754 mmHg 65%
    13:00 +15°C° 0.2 mm 6 mps 753 mmHg 66%
    14:00 +14°C° 0.2 mm 6 mps 753 mmHg 67%
    15:00 +14°C° 0.2 mm 6 mps 753 mmHg 67%
    16:00 +13°C° 0.2 mm 6 mps 752 mmHg 71%
    17:00 +13°C° 0.2 mm 5 mps 752 mmHg 75%
    18:00 +12°C° 0.2 mm 5 mps 752 mmHg 78%
    19:00 +12°C° 0.4 mm 5 mps 752 mmHg 79%
    20:00 +12°C° 0.4 mm 5 mps 752 mmHg 80%
    21:00 +12°C° 0.4 mm 4 mps 752 mmHg 80%
    22:00 +12°C° 0.6 mm 4 mps 751 mmHg 80%
    23:00 +12°C° 0.6 mm 5 mps 751 mmHg 79%

    19 October, Saturday

    Time Temperature Precipitation Wind Pressure Humidity
    00:00 +12°C° 0.6 mm 5 mps 750 mmHg 79%
    01:00 +12°C° 0.5 mm 5 mps 750 mmHg 80%
    02:00 +10°C° 0.5 mm 5 mps 750 mmHg 80%
    03:00 +10°C° 0.5 mm 5 mps 750 mmHg 80%
    04:00 +10°C° 0.3 mm 5 mps 750 mmHg 81%
    05:00 +11°C° 0.3 mm 4 mps 750 mmHg 81%
    06:00 +11°C° 0.3 mm 4 mps 750 mmHg 81%
    07:00 +10°C° 0 mm 5 mps 750 mmHg 79%
    08:00 +12°C° 0 mm 5 mps 750 mmHg 77%
    09:00 +13°C° 0 mm 6 mps 750 mmHg 75%
    10:00 +13°C° 0.3 mm 6 mps 750 mmHg 73%
    11:00 +14°C° 0.3 mm 7 mps 750 mmHg 71%
    12:00 +14°C° 0.3 mm 7 mps 750 mmHg 69%
    13:00 +14°C° 0.2 mm 7 mps 750 mmHg 69%
    14:00 +14°C° 0.2 mm 6 mps 750 mmHg 70%
    15:00 +14°C° 0.2 mm 6 mps 750 mmHg 71%
    16:00 +13°C° 0 mm 5 mps 749 mmHg 74%
    17:00 +12°C° 0 mm 5 mps 749 mmHg 76%
    18:00 +11°C° 0 mm 4 mps 749 mmHg 79%
    19:00 +11°C° 0 mm 4 mps 749 mmHg 79%
    20:00 +10°C° 0 mm 5 mps 749 mmHg 80%
    21:00 +10°C° 0 mm 5 mps 749 mmHg 80%
    22:00 +9°C° 0 mm 5 mps 749 mmHg 81%
    23:00 +9°C° 0 mm 5 mps 749 mmHg 81%
    Show more